TimeEST,TemperatureF,Dew PointF,Humidity,Sea Level PressureIn,VisibilityMPH,Wind Direction,Wind SpeedMPH,Gust SpeedMPH,PrecipitationIn,Events,Conditions,WindDirDegrees,DateUTC
12:09 AM,30.2,21.2,69,29.60,10.0,NW,9.2,20.7,N/A,,Mostly Cloudy,320,2012-12-30 05:09:00
12:32 AM,30.2,21.2,69,29.61,8.0,NNW,9.2,24.2,N/A,,Scattered Clouds,340,2012-12-30 05:32:00
12:53 AM,30.9,21.0,67,29.64,10.0,NNW,9.2,25.3,N/A,,Mostly Cloudy,340,2012-12-30 05:53:00
1:17 AM,30.2,19.4,64,29.63,10.0,Variable,6.9,17.3,N/A,,Scattered Clouds,0,2012-12-30 06:17:00
1:53 AM,30.0,19.9,66,29.67,10.0,WNW,8.1,20.7,N/A,,Scattered Clouds,300,2012-12-30 06:53:00
2:53 AM,30.0,17.1,59,29.70,10.0,WNW,13.8,24.2,N/A,,Clear,300,2012-12-30 07:53:00
3:53 AM,28.9,17.1,61,29.74,10.0,WNW,16.1,25.3,N/A,,Overcast,300,2012-12-30 08:53:00
4:53 AM,28.0,16.0,61,29.76,10.0,WNW,9.2,20.7,N/A,,Overcast,290,2012-12-30 09:53:00
5:53 AM,28.0,16.0,61,29.78,10.0,WNW,11.5,17.3,N/A,,Overcast,300,2012-12-30 10:53:00
6:53 AM,28.0,16.0,61,29.81,10.0,WNW,5.8,-,N/A,,Overcast,300,2012-12-30 11:53:00
7:53 AM,28.9,16.0,58,29.85,10.0,NW,8.1,19.6,N/A,,Overcast,320,2012-12-30 12:53:00
8:53 AM,28.9,15.1,56,29.89,10.0,WNW,12.7,18.4,N/A,,Overcast,290,2012-12-30 13:53:00
9:53 AM,30.0,14.0,51,29.93,10.0,NW,16.1,29.9,N/A,,Scattered Clouds,320,2012-12-30 14:53:00
10:53 AM,30.0,10.9,45,29.96,10.0,NW,13.8,31.1,N/A,,Clear,310,2012-12-30 15:53:00
11:53 AM,30.9,12.0,46,29.96,10.0,WNW,9.2,18.4,N/A,,Clear,290,2012-12-30 16:53:00
12:53 PM,32.0,10.9,42,29.96,10.0,NNW,16.1,28.8,N/A,,Scattered Clouds,330,2012-12-30 17:53:00
1:53 PM,32.0,10.0,40,29.98,10.0,WNW,8.1,26.5,N/A,,Scattered Clouds,290,2012-12-30 18:53:00
2:53 PM,30.9,10.9,43,30.01,10.0,NW,16.1,32.2,N/A,,Clear,320,2012-12-30 19:53:00
3:53 PM,30.0,12.0,47,30.05,10.0,WNW,13.8,24.2,N/A,,Clear,300,2012-12-30 20:53:00
4:53 PM,28.9,10.9,47,30.09,10.0,NW,9.2,20.7,N/A,,Clear,320,2012-12-30 21:53:00
5:53 PM,28.0,12.0,51,30.14,10.0,Variable,3.5,-,N/A,,Scattered Clouds,0,2012-12-30 22:53:00
6:53 PM,28.0,12.0,51,30.17,10.0,Variable,4.6,20.7,N/A,,Mostly Cloudy,0,2012-12-30 23:53:00
7:53 PM,27.0,12.0,53,30.17,10.0,Variable,4.6,-,N/A,,Scattered Clouds,0,2012-12-31 00:53:00
8:53 PM,27.0,12.0,53,30.18,10.0,Variable,3.5,-,N/A,,Scattered Clouds,0,2012-12-31 01:53:00
9:53 PM,26.1,12.9,58,30.17,10.0,North,5.8,-,N/A,,Partly Cloudy,360,2012-12-31 02:53:00
10:53 PM,25.0,12.9,60,30.17,10.0,North,4.6,-,N/A,,Clear,10,2012-12-31 03:53:00
11:53 PM,21.0,10.9,65,30.17,10.0,Calm,Calm,-,N/A,,Clear,0,2012-12-31 04:53:00